TimeEST,TemperatureF,Dew PointF,Humidity,Sea Level PressureIn,VisibilityMPH,Wind Direction,Wind SpeedMPH,Gust SpeedMPH,PrecipitationIn,Events,Conditions,WindDirDegrees,DateUTC
12:15 AM,8.6,-7.6,48,30.14,10.0,NW,3.5,-,N/A,,Clear,320,2013-01-24 05:15:00
12:35 AM,8.6,-7.6,48,30.14,10.0,NW,4.6,-,N/A,,Clear,320,2013-01-24 05:35:00
12:55 AM,8.6,-7.6,48,30.13,10.0,NNW,3.5,-,N/A,,Clear,330,2013-01-24 05:55:00
1:15 AM,8.6,-7.6,48,30.13,10.0,NW,3.5,-,N/A,,Clear,320,2013-01-24 06:15:00
1:35 AM,8.6,-7.6,48,30.13,10.0,NW,3.5,-,N/A,,Clear,310,2013-01-24 06:35:00
1:55 AM,6.8,-7.6,52,30.13,10.0,NW,4.6,-,N/A,,Clear,320,2013-01-24 06:55:00
2:15 AM,6.8,-7.6,52,30.12,10.0,NNW,4.6,-,N/A,,Clear,340,2013-01-24 07:15:00
2:35 AM,6.8,-5.8,56,30.11,10.0,NNW,4.6,-,N/A,,Clear,340,2013-01-24 07:35:00
2:55 AM,6.8,-7.6,52,30.11,10.0,Calm,Calm,-,N/A,,Clear,0,2013-01-24 07:55:00
3:15 AM,6.8,-7.6,52,30.11,10.0,NNW,4.6,-,N/A,,Clear,340,2013-01-24 08:15:00
3:35 AM,6.8,-5.8,56,30.11,10.0,NNW,5.8,-,N/A,,Clear,340,2013-01-24 08:35:00
3:55 AM,6.8,-5.8,56,30.11,10.0,NNW,4.6,-,N/A,,Clear,340,2013-01-24 08:55:00
4:15 AM,6.8,-5.8,56,30.11,10.0,NNW,6.9,-,N/A,,Clear,340,2013-01-24 09:15:00
4:35 AM,6.8,-5.8,56,30.11,10.0,NNW,8.1,-,N/A,,Clear,330,2013-01-24 09:35:00
4:55 AM,6.8,-5.8,56,30.12,10.0,NNW,5.8,-,N/A,,Clear,330,2013-01-24 09:55:00
5:15 AM,6.8,-5.8,56,30.12,10.0,NNW,5.8,-,N/A,,Clear,330,2013-01-24 10:15:00
5:35 AM,6.8,-5.8,56,30.12,10.0,NNW,6.9,-,N/A,,Clear,330,2013-01-24 10:35:00
5:55 AM,6.8,-5.8,56,30.13,10.0,NNW,6.9,-,N/A,,Clear,330,2013-01-24 10:55:00
6:15 AM,8.6,-5.8,52,30.13,10.0,NNW,6.9,-,N/A,,Clear,330,2013-01-24 11:15:00
6:35 AM,6.8,-5.8,56,30.14,10.0,NNW,6.9,-,N/A,,Clear,330,2013-01-24 11:35:00
6:55 AM,8.6,-5.8,52,30.14,10.0,NNW,9.2,-,N/A,,Clear,340,2013-01-24 11:55:00
7:15 AM,8.6,-5.8,52,30.14,10.0,NNW,9.2,-,N/A,,Clear,340,2013-01-24 12:15:00
7:35 AM,10.4,-5.8,48,30.15,10.0,North,6.9,-,N/A,,Clear,350,2013-01-24 12:35:00
7:55 AM,10.4,-5.8,48,30.15,10.0,NNW,10.4,-,N/A,,Clear,330,2013-01-24 12:55:00
8:15 AM,10.4,-5.8,48,30.15,10.0,NNW,11.5,-,N/A,,Clear,340,2013-01-24 13:15:00
8:35 AM,12.2,-5.8,45,30.15,10.0,NNW,17.3,23.0,N/A,,Clear,340,2013-01-24 13:35:00
8:55 AM,12.2,-5.8,45,30.14,10.0,NNW,16.1,24.2,N/A,,Clear,340,2013-01-24 13:55:00
9:15 AM,14.0,-5.8,41,30.15,10.0,NNW,13.8,21.9,N/A,,Clear,340,2013-01-24 14:15:00
9:35 AM,14.0,-5.8,41,30.15,10.0,NNW,11.5,21.9,N/A,,Clear,340,2013-01-24 14:35:00
9:55 AM,15.8,-5.8,38,30.15,10.0,NNW,18.4,21.9,N/A,,Clear,340,2013-01-24 14:55:00
10:15 AM,15.8,-5.8,38,30.14,10.0,NNW,15.0,29.9,N/A,,Clear,340,2013-01-24 15:15:00
10:35 AM,17.6,-7.6,32,30.14,10.0,NW,15.0,27.6,N/A,,Clear,320,2013-01-24 15:35:00
10:55 AM,17.6,-7.6,32,30.13,10.0,NNW,16.1,27.6,N/A,,Clear,330,2013-01-24 15:55:00
11:15 AM,17.6,-7.6,32,30.13,10.0,NNW,19.6,31.1,N/A,,Clear,330,2013-01-24 16:15:00
11:35 AM,19.4,-7.6,30,30.12,10.0,NNW,13.8,23.0,N/A,,Clear,340,2013-01-24 16:35:00
11:55 AM,19.4,-7.6,30,30.12,10.0,NNW,20.7,28.8,N/A,,Clear,340,2013-01-24 16:55:00
12:15 PM,19.4,-7.6,30,30.12,10.0,NNW,15.0,28.8,N/A,,Clear,330,2013-01-24 17:15:00
12:35 PM,19.4,-7.6,30,30.12,10.0,NW,16.1,27.6,N/A,,Clear,320,2013-01-24 17:35:00
12:55 PM,21.2,-9.4,26,30.12,10.0,NNW,16.1,29.9,N/A,,Clear,330,2013-01-24 17:55:00
1:15 PM,21.2,-9.4,26,30.12,10.0,NNW,12.7,28.8,N/A,,Clear,340,2013-01-24 18:15:00
1:35 PM,21.2,-7.6,28,30.13,10.0,NNW,13.8,24.2,N/A,,Clear,330,2013-01-24 18:35:00
1:55 PM,21.2,-9.4,26,30.14,10.0,NNW,19.6,28.8,N/A,,Clear,330,2013-01-24 18:55:00
2:15 PM,21.2,-7.6,28,30.14,10.0,NNW,16.1,29.9,N/A,,Clear,330,2013-01-24 19:15:00
2:35 PM,21.2,-9.4,26,30.14,10.0,NNW,15.0,26.5,N/A,,Clear,330,2013-01-24 19:35:00
2:55 PM,21.2,-9.4,26,30.15,10.0,NW,13.8,21.9,N/A,,Clear,310,2013-01-24 19:55:00
3:15 PM,21.2,-9.4,26,30.15,10.0,NW,15.0,25.3,N/A,,Clear,310,2013-01-24 20:15:00
3:35 PM,21.2,-9.4,26,30.16,10.0,NW,11.5,34.5,N/A,,Clear,320,2013-01-24 20:35:00
3:55 PM,21.2,-9.4,26,30.17,10.0,NW,11.5,28.8,N/A,,Clear,320,2013-01-24 20:55:00
4:15 PM,19.4,-9.4,28,30.17,10.0,WNW,8.1,26.5,N/A,,Clear,300,2013-01-24 21:15:00
4:35 PM,19.4,-9.4,28,30.18,10.0,NW,15.0,32.2,N/A,,Clear,320,2013-01-24 21:35:00
4:55 PM,19.4,-9.4,28,30.19,10.0,NW,13.8,32.2,N/A,,Clear,320,2013-01-24 21:55:00
5:15 PM,19.4,-9.4,28,30.20,10.0,NNW,12.7,24.2,N/A,,Clear,330,2013-01-24 22:15:00
5:35 PM,19.4,-9.4,28,30.21,10.0,NW,12.7,25.3,N/A,,Clear,320,2013-01-24 22:35:00
5:55 PM,19.4,-11.2,25,30.22,10.0,NW,8.1,17.3,N/A,,Clear,310,2013-01-24 22:55:00
6:15 PM,19.4,-13.0,23,30.22,10.0,NW,13.8,28.8,N/A,,Clear,310,2013-01-24 23:15:00
6:35 PM,19.4,-11.2,25,30.23,10.0,NW,11.5,25.3,N/A,,Clear,310,2013-01-24 23:35:00
6:55 PM,17.6,-11.2,27,30.23,10.0,NW,11.5,24.2,N/A,,Clear,310,2013-01-24 23:55:00
7:15 PM,17.6,-9.4,30,30.24,10.0,NW,18.4,25.3,N/A,,Clear,310,2013-01-25 00:15:00
7:35 PM,17.6,-9.4,30,30.23,10.0,NW,12.7,24.2,N/A,,Clear,320,2013-01-25 00:35:00
7:55 PM,17.6,-9.4,30,30.24,10.0,NW,13.8,20.7,N/A,,Clear,310,2013-01-25 00:55:00
8:15 PM,17.6,-9.4,30,30.25,10.0,NW,11.5,24.2,N/A,,Clear,310,2013-01-25 01:15:00
8:35 PM,17.6,-7.6,32,30.25,10.0,NW,12.7,23.0,N/A,,Clear,320,2013-01-25 01:35:00
8:55 PM,17.6,-7.6,32,30.25,10.0,NW,10.4,19.6,N/A,,Clear,320,2013-01-25 01:55:00
9:15 PM,17.6,-5.8,35,30.26,10.0,NW,13.8,21.9,N/A,,Clear,320,2013-01-25 02:15:00
9:35 PM,15.8,-5.8,38,30.26,10.0,NW,17.3,26.5,N/A,,Clear,310,2013-01-25 02:35:00
9:55 PM,15.8,-4.0,41,30.26,10.0,NW,13.8,27.6,N/A,,Clear,310,2013-01-25 02:55:00
10:15 PM,15.8,-2.2,45,30.26,10.0,NW,13.8,20.7,N/A,,Clear,310,2013-01-25 03:15:00
10:35 PM,15.8,-0.4,49,30.27,10.0,NW,8.1,25.3,N/A,,Clear,310,2013-01-25 03:35:00
10:55 PM,15.8,-0.4,49,30.27,10.0,NW,13.8,20.7,N/A,,Clear,310,2013-01-25 03:55:00
11:15 PM,15.8,-0.4,49,30.27,10.0,NW,9.2,18.4,N/A,,Clear,320,2013-01-25 04:15:00
11:35 PM,15.8,-0.4,49,30.28,10.0,NW,11.5,21.9,N/A,,Clear,320,2013-01-25 04:35:00
11:55 PM,15.8,-0.4,49,30.28,10.0,NNW,11.5,24.2,N/A,,Clear,330,2013-01-25 04:55:00